TimeAKDT,TemperatureF,Dew PointF,Humidity,Sea Level PressureIn,VisibilityMPH,Wind Direction,Wind SpeedMPH,Gust SpeedMPH,PrecipitationIn,Events,Conditions,WindDirDegrees,DateUTC
12:04 AM,1.4,-0.4,92,30.12,10.0,ENE,8.1,-,0.00,,Overcast,60,2013-04-27 08:04:00
12:53 AM,1.0,-0.9,91,30.16,10.0,ENE,9.2,-,0.00,,Overcast,70,2013-04-27 08:53:00
1:27 AM,1.4,-0.4,92,30.17,10.0,ENE,4.6,-,0.00,,Overcast,70,2013-04-27 09:27:00
1:34 AM,1.4,-0.4,92,30.17,10.0,East,4.6,-,0.00,,Overcast,80,2013-04-27 09:34:00
1:53 AM,1.9,-0.0,91,30.19,10.0,Calm,Calm,-,0.00,,Overcast,0,2013-04-27 09:53:00
2:53 AM,3.0,1.0,91,30.21,10.0,Calm,Calm,-,0.00,,Overcast,0,2013-04-27 10:53:00
3:12 AM,3.2,-0.4,85,30.21,2.5,Calm,Calm,-,0.00,Snow,Light Snow,0,2013-04-27 11:12:00
3:23 AM,1.4,-0.4,92,30.21,1.8,Calm,Calm,-,0.00,Snow,Light Snow,0,2013-04-27 11:23:00
3:26 AM,1.4,-0.4,92,30.21,2.0,Calm,Calm,-,0.00,Snow,Light Snow,0,2013-04-27 11:26:00
3:34 AM,1.4,-2.2,85,30.21,3.0,Calm,Calm,-,0.00,Snow,Light Snow,0,2013-04-27 11:34:00
3:44 AM,1.4,-0.4,92,30.22,6.0,Calm,Calm,-,0.00,,Overcast,0,2013-04-27 11:44:00
3:53 AM,1.9,-0.9,88,30.22,9.0,Calm,Calm,-,0.00,,Overcast,0,2013-04-27 11:53:00
4:53 AM,1.9,1.0,96,30.24,10.0,Calm,Calm,-,0.00,,Overcast,0,2013-04-27 12:53:00
5:53 AM,1.9,-0.0,91,30.26,10.0,WSW,4.6,-,0.00,,Overcast,240,2013-04-27 13:53:00
6:53 AM,1.9,-0.0,91,30.27,10.0,SSW,5.8,-,0.00,,Overcast,200,2013-04-27 14:53:00
7:53 AM,3.0,1.0,91,30.27,10.0,SSW,8.1,-,0.00,,Overcast,210,2013-04-27 15:53:00
8:53 AM,3.0,-0.0,87,30.27,10.0,SW,12.7,-,0.00,,Overcast,220,2013-04-27 16:53:00
9:53 AM,3.0,1.0,91,30.28,10.0,SW,12.7,-,0.00,,Overcast,230,2013-04-27 17:53:00
10:20 AM,3.2,1.4,92,30.28,2.0,WSW,13.8,-,0.00,Snow,Light Snow,240,2013-04-27 18:20:00
10:32 AM,3.2,-0.4,85,30.28,3.0,WSW,13.8,-,0.00,Snow,Light Snow,240,2013-04-27 18:32:00
10:53 AM,1.9,-0.0,91,30.28,5.0,SW,12.7,-,0.00,Snow,Light Snow,230,2013-04-27 18:53:00
11:53 AM,3.0,-0.9,84,30.28,8.0,SW,15.0,-,0.00,,Overcast,220,2013-04-27 19:53:00
12:53 PM,3.9,-0.0,84,30.27,9.0,SW,17.3,-,N/A,,Overcast,220,2013-04-27 20:53:00
1:35 PM,5.0,1.4,85,30.27,6.0,SW,16.1,-,N/A,Snow,Blowing Snow,220,2013-04-27 21:35:00
1:49 PM,6.8,1.4,79,30.26,10.0,SW,16.1,-,N/A,,Overcast,220,2013-04-27 21:49:00
1:53 PM,6.1,1.9,83,30.27,10.0,SW,16.1,-,N/A,,Overcast,220,2013-04-27 21:53:00
2:33 PM,6.8,3.2,85,30.26,7.0,SW,16.1,-,N/A,,Overcast,230,2013-04-27 22:33:00
2:48 PM,8.6,3.2,79,30.25,10.0,SW,17.3,-,N/A,,Overcast,230,2013-04-27 22:48:00
2:53 PM,8.1,3.9,83,30.26,10.0,SW,16.1,-,N/A,,Overcast,230,2013-04-27 22:53:00
3:24 PM,8.6,5.0,85,30.24,4.0,SW,17.3,-,0.00,Snow,Light Snow,230,2013-04-27 23:24:00
3:53 PM,9.0,6.1,88,30.25,5.0,SW,17.3,-,0.00,Snow,Light Snow,230,2013-04-27 23:53:00
4:21 PM,10.4,6.8,85,30.23,3.0,SW,19.6,-,0.00,Snow,Light Snow,230,2013-04-28 00:21:00
4:44 PM,10.4,6.8,85,30.23,6.0,WSW,19.6,-,0.00,Snow,Light Snow,240,2013-04-28 00:44:00
4:53 PM,10.9,7.0,84,30.23,5.0,SW,19.6,-,0.00,Snow,Light Snow,230,2013-04-28 00:53:00
5:14 PM,10.4,6.8,85,30.22,2.5,SW,18.4,-,0.00,Snow,Light Snow,230,2013-04-28 01:14:00
5:19 PM,10.4,6.8,85,30.22,3.0,WSW,20.7,-,0.00,Snow,Light Snow,240,2013-04-28 01:19:00
5:53 PM,10.9,7.0,84,30.22,7.0,WSW,17.3,-,0.00,Snow,Light Snow,240,2013-04-28 01:53:00
6:53 PM,10.9,7.0,84,30.22,5.0,WSW,18.4,-,0.00,Snow,Light Snow,240,2013-04-28 02:53:00
7:53 PM,10.9,8.1,88,30.20,2.5,WSW,17.3,-,0.00,Snow,Light Snow,250,2013-04-28 03:53:00
8:05 PM,10.4,8.6,92,30.19,4.0,WSW,16.1,-,0.00,Snow,Light Snow,240,2013-04-28 04:05:00
8:53 PM,10.9,9.0,92,30.18,3.0,WSW,16.1,-,0.00,Snow,Light Snow,240,2013-04-28 04:53:00
9:03 PM,10.4,8.6,92,30.17,1.8,WSW,17.3,-,0.00,Snow,Light Snow,240,2013-04-28 05:03:00
9:23 PM,10.4,8.6,92,30.17,1.8,WSW,17.3,-,0.00,Snow,Light Snow,240,2013-04-28 05:23:00
9:53 PM,12.0,9.0,88,30.17,3.0,WSW,16.1,-,0.00,Snow,Light Snow,240,2013-04-28 05:53:00
10:00 PM,12.2,10.4,92,30.16,2.0,WSW,16.1,-,0.00,Snow,Light Snow,240,2013-04-28 06:00:00
10:09 PM,12.2,10.4,92,30.15,1.2,WSW,17.3,-,0.00,Snow,Light Snow,240,2013-04-28 06:09:00
10:53 PM,12.0,10.0,92,30.15,1.5,WSW,18.4,-,0.00,Snow,Light Snow,240,2013-04-28 06:53:00
11:36 PM,12.2,10.4,92,30.14,1.8,WSW,17.3,-,0.00,Snow,Light Snow,240,2013-04-28 07:36:00
11:43 PM,12.2,10.4,92,30.13,1.8,WSW,17.3,-,0.00,Snow,Light Snow,250,2013-04-28 07:43:00
11:53 PM,12.9,12.0,96,30.14,2.5,WSW,18.4,-,0.00,Snow,Light Snow,250,2013-04-28 07:53:00